Lexington, KY

3:26 AM EST on November 24, 2017 (GMT -0500)
Blue Grass

Weather History for KLEX - June, 2014

Change the Weather History Date:

Tuesday, June 10, 2014

  Actual Average Record
Temperature  
Mean Temperature 75 °F 72 °F  
Max Temperature 84 °F 82 °F 95 °F (1911)
Min Temperature 65 °F 61 °F 43 °F (1988)
Degree Days  
Heating Degree Days 0 0  
Month to date heating degree days 0 8  
Since 1 June heating degree days 0 8  
Since 1 July heating degree days 4855 4608  
Cooling Degree Days 10 7  
Month to date cooling degree days 68 59  
Year to date cooling degree days 229 166  
Since 1 June cooling degree days 68 59  
Growing Degree Days 24 (Base 50)    
Moisture  
Dew Point 64 °F    
Average Humidity 76    
Maximum Humidity 93    
Minimum Humidity 58    
Precipitation  
Precipitation 0.92 in 0.16 in 1.95 in (1910)
Month to date precipitation 2.84 1.64  
Year to date precipitation 24.19 20.97  
Snow  
Snow 0.00 in 0.00 in - ()
Month to date snowfall 0.0 0.0  
Since 1 June snowfall 0.0 0.0  
Since 1 July snowfall 27.1 13.0  
Snow Depth 0.00 in    
Sea Level Pressure  
Sea Level Pressure 29.87 in    
Wind  
Wind Speed 8 mph (South)    
Max Wind Speed 23 mph    
Max Gust Speed 31 mph    
Visibility 8 miles    
Events Fog , Rain , Thunderstorm    
T = Trace of Precipitation, MM = Missing Value Source: NWS Daily Summary

Daily Weather History Graph

Daily Weather History Graph

Search for Another Location

Airport or City:

Trip Planner

Search our weather history database for the weather conditions in past years. The results will help you decide how hot, cold, wet, or windy it might be!

Date:

Astronomy

Jun. 10, 2014 Rise Set
Actual Time 6:15 AM EDT 9:00 PM EDT
Civil Twilight 5:44 AM EDT 9:32 PM EDT
Nautical Twilight 5:04 AM EDT 10:11 PM EDT
Astronomical Twilight 4:20 AM EDT 10:55 PM EDT
Moon 6:27 PM EDT (6/10) 4:17 AM EDT (6/10)
Length of Visible Light 15h 48m
Length of Day
14h 45m
Waxing Gibbous, 92% of the Moon is Illuminated
Jun 10
Waxing Gibbous
Jun 13
Full
Jun 19
Last Quarter
Jun 27
New
Jul 5
First Quarter

Hourly Weather History & Observations

Time (EDT) Temp. Heat Index Dew Point Humidity Pressure Visibility Wind Dir Wind Speed Gust Speed Precip Events Conditions
12:54 AM 66.9 °F - 60.1 °F 79% 29.91 in 9.0 mi East 4.6 mph - N/A   Clear
1:54 AM 66.9 °F - 60.1 °F 79% 29.88 in 9.0 mi East 5.8 mph - N/A   Clear
2:54 AM 66.9 °F - 60.1 °F 79% 29.87 in 9.0 mi ESE 9.2 mph - N/A   Overcast
3:54 AM 66.9 °F - 60.1 °F 79% 29.85 in 10.0 mi ESE 9.2 mph - N/A   Partly Cloudy
4:54 AM 66.9 °F - 61.0 °F 81% 29.84 in 10.0 mi ESE 10.4 mph - 0.00 in   Mostly Cloudy
5:08 AM 66.9 °F - 61.0 °F 81% 29.86 in 8.0 mi SE 10.4 mph - N/A   Overcast
5:54 AM 66.0 °F - 61.0 °F 84% 29.84 in 8.0 mi SSE 5.8 mph - 0.00 in Rain Light Rain
6:31 AM 64.9 °F - 61.0 °F 87% 29.88 in 6.0 mi SE 5.8 mph - 0.00 in   Mostly Cloudy
6:54 AM 64.9 °F - 62.1 °F 90% 29.86 in 6.0 mi SSE 5.8 mph - 0.00 in   Partly Cloudy
7:50 AM 66.2 °F - 62.6 °F 88% 29.89 in 6.0 mi SE 4.6 mph - N/A   Mostly Cloudy
7:54 AM 66.9 °F - 62.1 °F 84% 29.87 in 6.0 mi SE 4.6 mph - N/A   Haze
8:13 AM 68.0 °F - 63.0 °F 84% 29.90 in 8.0 mi SSE 8.1 mph - N/A   Mostly Cloudy
8:45 AM 71.1 °F - 64.0 °F 78% 29.90 in 10.0 mi SSW 11.5 mph - N/A   Mostly Cloudy
8:54 AM 71.1 °F - 64.0 °F 78% 29.87 in 10.0 mi SSW 9.2 mph - N/A   Mostly Cloudy
9:54 AM 72.0 °F - 64.0 °F 76% 29.88 in 10.0 mi SW 9.2 mph - N/A   Overcast
10:54 AM 73.4 °F - 64.4 °F 73% 29.92 in 10.0 mi SW 6.9 mph - N/A   Mostly Cloudy
11:08 AM 75.9 °F - 64.0 °F 67% 29.91 in 10.0 mi SW 9.2 mph - N/A   Scattered Clouds
11:46 AM 77.0 °F - 64.9 °F 66% 29.91 in 10.0 mi South 8.1 mph - N/A   Mostly Cloudy
11:54 AM 77.0 °F - 64.9 °F 66% 29.88 in 10.0 mi WSW 8.1 mph - N/A   Mostly Cloudy
12:35 PM 80.1 °F 81.9 °F 64.9 °F 60% 29.90 in 10.0 mi South 12.7 mph - N/A   Mostly Cloudy
12:54 PM 80.6 °F 82.7 °F 66.2 °F 61% 29.91 in 10.0 mi SSW 10.4 mph - N/A   Mostly Cloudy
1:54 PM 81.0 °F 83.0 °F 66.0 °F 60% 29.86 in 10.0 mi South 10.4 mph - N/A   Mostly Cloudy
2:54 PM 80.6 °F 82.7 °F 66.2 °F 61% 29.88 in 10.0 mi South 5.8 mph - N/A Rain Light Rain
3:54 PM 82.0 °F 83.8 °F 64.9 °F 56% 29.83 in 10.0 mi Variable 4.6 mph - 0.00 in   Clear
4:54 PM 82.4 °F 84.6 °F 66.2 °F 58% 29.82 in 10.0 mi SE 8.1 mph - N/A   Mostly Cloudy
5:18 PM 82.0 °F 83.4 °F 64.0 °F 54% 29.82 in 10.0 mi SE 11.5 mph - N/A Thunderstorm Mostly Cloudy
5:45 PM 70.0 °F - 64.9 °F 84% 29.88 in 2.5 mi WSW 13.8 mph 31.1 mph 0.05 in Rain , Thunderstorm Light Thunderstorms and Rain
5:47 PM 69.8 °F - 64.4 °F 83% 29.87 in 1.0 mi West 12.7 mph 31.1 mph N/A Rain , Thunderstorm Heavy Thunderstorms and Rain
5:49 PM 69.8 °F - 64.4 °F 83% 29.86 in 0.5 mi West 16.1 mph 25.3 mph 0.21 in Fog , Rain , Thunderstorm Heavy Thunderstorms and Rain
5:54 PM 69.1 °F - 64.9 °F 87% 29.84 in 0.5 mi West 16.1 mph 23.0 mph 0.28 in Fog , Rain , Thunderstorm Heavy Thunderstorms and Rain
6:01 PM 68.0 °F - 64.9 °F 90% 29.93 in 4.0 mi WSW 23.0 mph 31.1 mph 0.08 in Rain , Thunderstorm Heavy Thunderstorms and Rain
6:04 PM 68.0 °F - 66.0 °F 93% 29.91 in 1.0 mi WSW 13.8 mph 31.1 mph 0.14 in Rain , Thunderstorm Heavy Thunderstorms and Rain
6:07 PM 68.0 °F - 66.0 °F 93% 29.91 in 1.0 mi WSW 10.4 mph 31.1 mph 0.40 in Rain , Thunderstorm Heavy Rain
6:18 PM 68.0 °F - 64.9 °F 90% 29.88 in 4.0 mi WSW 10.4 mph - 0.48 in Rain , Thunderstorm Rain
6:28 PM 68.0 °F - 64.0 °F 87% 29.87 in 4.0 mi SW 8.1 mph - 0.50 in Rain , Thunderstorm Light Rain
6:38 PM 66.9 °F - 63.0 °F 87% 29.87 in 4.0 mi SW 5.8 mph - 0.53 in Rain Rain
6:54 PM 66.9 °F - 63.0 °F 87% 29.83 in 4.0 mi Calm Calm - 0.58 in Rain Rain
7:01 PM 66.9 °F - 64.0 °F 90% 29.84 in 9.0 mi South 3.5 mph - 0.01 in Rain Light Rain
7:54 PM 66.9 °F - 64.0 °F 90% 29.85 in 9.0 mi SSE 6.9 mph - 0.06 in Rain Light Rain
8:54 PM 66.9 °F - 64.0 °F 90% 29.82 in 10.0 mi SSE 4.6 mph - 0.00 in   Partly Cloudy
9:54 PM 66.9 °F - 64.0 °F 90% 29.81 in 10.0 mi SE 5.8 mph - N/A   Clear
10:54 PM 66.2 °F - 62.6 °F 88% 29.85 in 10.0 mi SSE 9.2 mph - N/A   Partly Cloudy
11:54 PM 66.0 °F - 63.0 °F 90% 29.83 in 10.0 mi SE 8.1 mph - N/A   Partly Cloudy